Location: Newark
(60.6561°N, 46.5772°E)
Time: 11:55:43
(UTC+00:00)

Tiros 1 despin weight - Pass Details

Date: 23 October 2019
Orbit: 594 x 642 km, 48.2° (Epoch: 21 November)

Event Time Altitude Azimuth Distance (km) Brightness Sun altitude
Rises 22:09:20 0° 228° (SW) 2,929 - -38.1°
Reaches altitude 10° 22:12:23 10° 208° (SSW) 2,028 - -37.9°
Maximum altitude 22:15:17 16° 169° (S) 1,644 - -37.7°
Drops below altitude 10° 22:18:12 10° 130° (SE) 2,036 - -37.6°
Sets 22:21:16 0° 110° (ESE) 2,947 - -37.4°
